STARLINK-5668, 55350

Orbit data source: Space-Track

STARLINK-5668, 55350 is a payload satellite owned by SpaceX/Seattle (US) in LEO that was launched on Thu, 26 Jan 2023 UTC via an FALCON 9 launch vehicle from the Air Force Eastern Test Range (AFETR). Payload-class satellites include a variety of spacecraft equipped with specific instruments for various scientific and technological missions. These include communications satellites like Starlink; space stations such as the ISS; scientific satellites like the Hubble; Earth observation satellites from companies like Planet Labs, Umbra, and HawkEye 360; GPS; miniature CubeSats for education and research; and military/defense satellites.

Loading next visibility...
Identifier
55350, 2023-013V
Orbit
LEO
Country
Flag of USUS
Related business
Manufacturer
SpaceX/Seattle
Mission
Operational Commercial Communications
Bus & Motor
STARLINK, Unknown motor
Mass
305 kg wet, ~290 kg dry
Launch date (UTC)
2023-01-26 (3 years ago)
Launch vehicle
FALCON 9
Launch site
Air Force Eastern Test Range (AFETR)
Object type
Payload
Rocket body
Debris
Shape & HBR
Box + 1 Pan, 10.1 m
Radar Cross Section
13.562 m², Large (>1 m²)

Expand to show TLE details & history
Last TLE update: 19 hours ago

TLE from 19 hours ago
0 STARLINK-5668
1 55350U 23013V   25349.21812012  .00000525  00000-0  53939-4 0  9992
2 55350  43.0050  39.2450 0001172 265.7525  94.3183 15.02539173159007
Epoch: 2025-12-15T05:14Z
TLE epoch observation values (Epoch: 2025-12-15T05:14:05.578Z)
Latitude
-0.00004°
Longitude
-123.39813°
Altitude
558.91 km
Speed
7.584 km/s
True Right ascension
02h 36m 58s
True Declination
0° 00' 00"
Sunlit
Object was in full shadow at epoch
Visualization orbit readout
Latitude
Unknown
Longitude
Unknown
Altitude
Unknown
Speed
Unknown
Apparent Right ascension
Unknown
Apparent Declination
Unknown
Sunlit
N/A
Visualization observer readout
Local Sidereal Time
22:47:49
Azimuth
Unknown
Elevation
Unknown
Doppler factor
Unknown
Orbital elements
Apogee altitude
561.806 km
Perigee altitude
560.18 km
Semi-major axis
6,939.13 km
Eccentricity
0.00012
Inclination
43.005°
RAAN
39.245°
Arg. of periapsis
265.7525°
True anomaly
94.33169°
Mean anomaly
94.3183°
Eccentric anomaly
94.325°
Mean motion
3.75479 °/min
Orbital period
95.88 mins
BSTAR
0.000053939
Loading maneuver chart data...
Computing Atmospheric mass density...
Loading historical data...
Loading historical data...
Loading historical data...
Loading historical data...
Loading historical data...
Loading historical data...
Loading historical data...

Documentation

Showing up to 5 results
|